This demonstration page uses our WeatherBlox Daily Observations layout. Learn more.

Left ArrowRight Arrow

41.86663, -103.66717

Hourly Observations for September 19, 2018

Temp ( °F °C ) Dew Point ( °F °C ) Humidity (%) Winds ( mph kmh ) Pressure ( in mb ) Visibility ( mi km ) Precip ( " mm )
12:53 am 00:53 Clear 63 17.2 62 16.7 97 97 ESE 9 15 29.75 1008 10 16 N/A
1:06 am 01:06 Mostly Cloudy 64 18 63 17 94 94 ESE 9 15 29.74 1007 10 16 N/A
1:53 am 01:53 Cloudy 65 18.3 64 17.8 97 97 SE 8 13 29.73 1007 10 16 N/A
2:05 am 02:05 Cloudy 65 18.3 64 17.8 97 97 SE 8 13 29.74 1007 10 16 N/A
2:53 am 02:53 Cloudy 65 18.3 65 18.3 100 100 ESE 7 11 29.72 1007 8 13 N/A
3:53 am 03:53 Cloudy 65 18.3 65 18.3 100 100 E 6 9 29.72 1007 7 11 N/A
4:39 am 04:39 Cloudy 65 18.3 65 18.3 100 100 NE 3 6 29.74 1007 7 11 N/A
4:53 am 04:53 Cloudy 65 18.3 65 18.3 100 100 NE 3 6 29.73 1007 7 11 N/A
5:53 am 05:53 Cloudy 65 18.3 65 18.3 100 100 NNE 5 7 29.75 1007 7 11 N/A
6:53 am 06:53 Cloudy 66 18.9 65 18.3 96 96 N 14 22 29.79 1009 8 13 N/A
7:53 am 07:53 Cloudy 60 15.6 59 15 96 96 NNE 14 22 29.83 1010 10 16 N/A
8:08 am 08:08 Cloudy 61 16 59 15 94 94 NNE 17 28 29.80 1009 10 16 N/A
8:53 am 08:53 Mostly Cloudy 63 17.2 59 15 87 87 NE 22 35 29.82 1010 10 16 N/A
9:53 am 09:53 Partly Cloudy 65 18.3 60 15.6 84 84 ENE 12 19 29.85 1011 10 16 N/A
10:48 am 10:48 Cloudy 66 19 61 16 83 83 NE 5 7 29.80 1009 10 16 N/A
10:53 am 10:53 Cloudy 66 18.9 60 15.6 81 81 NE 6 9 29.87 1011 10 16 N/A
11:53 am 11:53 Cloudy 66 18.9 60 15.6 81 81 NNE 8 13 29.86 1011 10 16 N/A
12:53 pm 12:53 Cloudy 68 20 60 15.6 76 76 N 10 17 29.83 1010 10 16 N/A
1:16 pm 13:16 Partly Cloudy 69 20.6 60 15.6 73 73 NNE 9 15 29.74 1007 10 16 N/A
1:53 pm 13:53 Partly Cloudy 70 21.1 60 15.6 71 71 ENE 12 19 29.80 1009 10 16 N/A
2:30 pm 14:30 Mostly Cloudy 69 20.6 60 15.6 73 73 NE 10 17 29.74 1007 10 16 N/A
2:53 pm 14:53 Cloudy 69 20.6 60 15.6 73 73 NE 13 20 29.80 1009 10 16 N/A
3:53 pm 15:53 Cloudy 66 18.9 59 15 78 78 ENE 16 26 29.80 1009 10 16 N/A
4:53 pm 16:53 Cloudy 64 17.8 59 15 84 84 NE 14 22 29.81 1009 10 16 N/A
5:06 pm 17:06 Cloudy 64 17.8 59 15 84 84 NE 15 24 29.77 1008 10 16 N/A
5:28 pm 17:28 Cloudy 63 17 59 15 88 88 N 12 19 29.80 1009 10 16 N/A
5:53 pm 17:53 Cloudy 61 16.1 58 14.4 90 90 N 9 15 29.85 1011 10 16 N/A
6:53 pm 18:53 Cloudy 60 15.6 57 13.9 90 90 ENE 7 11 29.84 1010 10 16 N/A
7:11 pm 19:11 Cloudy 60 15.6 57 13.9 90 90 N 8 13 29.80 1009 10 16 N/A
7:25 pm 19:25 Cloudy 60 15.6 57 13.9 90 90 NNE 12 19 29.80 1009 10 16 N/A
7:50 pm 19:50 Cloudy 57 14 55 13 94 94 NNE 12 19 29.83 1010 10 16 N/A
7:53 pm 19:53 Cloudy 58 14.4 56 13.3 93 93 NNE 10 17 29.86 1011 10 16 N/A
8:19 pm 20:19 Partly Cloudy 58 14.4 55 12.8 90 90 NE 16 26 29.83 1010 10 16 N/A
8:53 pm 20:53 Mostly Cloudy 58 14.4 56 13.3 93 93 NNE 12 19 29.87 1012 10 16 N/A
9:28 pm 21:28 Cloudy 58 14.4 55 12.8 90 90 ENE 5 7 29.85 1011 10 16 N/A
9:53 pm 21:53 Cloudy 58 14.4 55 12.8 90 90 NE 5 7 29.88 1012 10 16 N/A
10:10 pm 22:10 Cloudy 57 13.9 55 12.8 93 93 N 10 17 29.83 1010 10 16 N/A
10:22 pm 22:22 Mostly Cloudy 57 13.9 55 12.8 93 93 NNE 9 15 29.83 1010 10 16 N/A
10:41 pm 22:41 Mostly Cloudy 57 13.9 55 12.8 93 93 N N/A 29.83 1010 10 16 N/A
10:53 pm 22:53 Cloudy 58 14.4 55 12.8 90 90 E 8 13 29.84 1011 10 16 N/A
11:01 pm 23:01 Cloudy 58 14.4 55 12.8 90 90 E 8 13 29.83 1010 10 16 N/A
11:53 pm 23:53 Cloudy 57 13.9 55 12.8 93 93 ENE 14 22 29.80 1009 10 16 N/A

Powered by AerisWeather